9M8ZAL-13 Weather Reports


Display with metric or nautical units.
time (UTC)temp
F
wind
direction
speed
MPH
gust
MPH
rain 1hr
in
rain 24hr
in
rain mn
in
humidity
%
barometer
mb
20260502130330 83 0.0 0.0 0.00 0.00 0.00 1008.0
20260502123329 83 0.0 0.0 0.00 0.00 0.00 1007.5
20260502122329 83 0.0 0.0 0.00 0.00 0.00 1007.3
20260502121329 84 0.0 0.0 0.00 0.00 0.00 1007.2
20260502120329 84 0.0 0.0 0.00 0.00 0.00 1007.1
20260502115329 84 0.0 0.0 0.00 0.00 0.00 1007.0
20260502114329 84 0.0 0.0 0.00 0.00 0.00 1006.8
20260502113329 84 0.0 0.0 0.00 0.00 0.00 1006.7
20260502112329 84 0.0 0.0 0.00 0.00 0.00 1006.3
20260502111329 84 0.0 0.0 0.00 0.00 0.00 1006.3
20260502110329 84 0.0 0.0 0.00 0.00 0.00 1006.3
20260502105329 85 0.0 0.0 0.00 0.00 0.00 1006.2
20260502104329 85 0.0 0.0 0.00 0.00 0.00 1006.0
20260502103329 85 0.0 0.0 0.00 0.00 0.00 1005.8
20260502102329 85 0.0 0.0 0.00 0.00 0.00 1005.7
20260502101329 86 0.0 0.0 0.00 0.00 0.00 1005.9
20260502100329 86 0.0 0.0 0.00 0.00 0.00 1005.6
20260502091329 86 0.0 0.0 0.00 0.00 0.00 1005.8
20260502090329 86 0.0 0.0 0.00 0.00 0.00 1005.5
20260502071328 89 0.0 0.0 0.00 0.00 0.00 1005.9
20260502070328 91 0.0 0.0 0.00 0.00 0.00 1005.8
20260502065329 91 0.0 0.0 0.00 0.00 0.00 1005.4
20260502064328 92 0.0 0.0 0.00 0.00 0.00 1005.7
20260502063328 91 0.0 0.0 0.00 0.00 0.00 1005.8
20260502062329 93 0.0 0.0 0.00 0.00 0.00 1006.0
20260502061328 93 0.0 0.0 0.00 0.00 0.00 1006.2
20260502060329 93 0.0 0.0 0.00 0.00 0.00 1006.4
20260502055328 93 0.0 0.0 0.00 0.00 0.00 1006.6
20260502054328 94 0.0 0.0 0.00 0.00 0.00 1006.7
20260502053328 92 0.0 0.0 0.00 0.00 0.00 1007.0
20260502052328 94 0.0 0.0 0.00 0.00 0.00 1007.3
20260502051328 92 0.0 0.0 0.00 0.00 0.00 1007.6
20260502050329 92 0.0 0.0 0.00 0.00 0.00 1007.9
20260502045328 91 0.0 0.0 0.00 0.00 0.00 1008.2
20260502044328 91 0.0 0.0 0.00 0.00 0.00 1008.5
20260502043328 92 0.0 0.0 0.00 0.00 0.00 1008.4
20260502042328 91 0.0 0.0 0.00 0.00 0.00 1008.5
20260502041327 91 0.0 0.0 0.00 0.00 0.00 1008.7
20260502040328 90 0.0 0.0 0.00 0.00 0.00 1008.9
20260502035328 90 0.0 0.0 0.00 0.00 0.00 1009.1
20260502034328 90 0.0 0.0 0.00 0.00 0.00 1009.2
20260502033328 90 0.0 0.0 0.00 0.00 0.00 1009.3
20260502032328 90 0.0 0.0 0.00 0.00 0.00 1009.5
20260502031327 90 0.0 0.0 0.00 0.00 0.00 1009.5
20260502030327 90 0.0 0.0 0.00 0.00 0.00 1009.6
20260502025327 90 0.0 0.0 0.00 0.00 0.00 1009.7
20260502024328 88 0.0 0.0 0.00 0.00 0.00 1009.7
20260502023328 88 0.0 0.0 0.00 0.00 0.00 1009.7
20260502022328 87 0.0 0.0 0.00 0.00 0.00 1009.7
20260502021327 87 0.0 0.0 0.00 0.00 0.00 1009.8
20260502020327 86 0.0 0.0 0.00 0.00 0.00 1009.7
20260502015327 86 0.0 0.0 0.00 0.00 0.00 1009.6
20260502014328 86 0.0 0.0 0.00 0.00 0.00 1009.4
20260502013328 86 0.0 0.0 0.00 0.00 0.00 1009.4
20260502012327 85 0.0 0.0 0.00 0.00 0.00 1009.4
20260502011327 83 0.0 0.0 0.00 0.00 0.00 1009.3
20260502010327 83 0.0 0.0 0.00 0.00 0.00 1009.1
20260502005327 83 0.0 0.0 0.00 0.00 0.00 1009.1
20260502004327 83 0.0 0.0 0.00 0.00 0.00 1009.1
20260502003327 83 0.0 0.0 0.00 0.00 0.00 1009.1
20260502002327 83 0.0 0.0 0.00 0.00 0.00 1008.8
20260502001327 82 0.0 0.0 0.00 0.00 0.00 1008.8
20260502000327 82 0.0 0.0 0.00 0.00 0.00 1008.8
20260501235327 82 0.0 0.0 0.00 0.00 0.00 1008.8
20260501234327 81 0.0 0.0 0.00 0.00 0.00 1008.7
20260501233327 81 0.0 0.0 0.00 0.00 0.00 1008.4
20260501232327 82 0.0 0.0 0.00 0.00 0.00 1008.1
20260501231327 81 0.0 0.0 0.00 0.00 0.00 1008.0
20260501230327 81 0.0 0.0 0.00 0.00 0.00 1008.0
20260501225327 81 0.0 0.0 0.00 0.00 0.00 1007.9
20260501224327 80 0.0 0.0 0.00 0.00 0.00 1007.9
20260501223327 80 0.0 0.0 0.00 0.00 0.00 1007.7
20260501222326 80 0.0 0.0 0.00 0.00 0.00 1007.7
20260501221326 80 0.0 0.0 0.00 0.00 0.00 1007.8
20260501220327 80 0.0 0.0 0.00 0.00 0.00 1007.8
20260501215327 81 0.0 0.0 0.00 0.00 0.00 1007.5
20260501214326 81 0.0 0.0 0.00 0.00 0.00 1007.5
20260501213326 81 0.0 0.0 0.00 0.00 0.00 1007.4
20260501212326 81 0.0 0.0 0.00 0.00 0.00 1007.4
20260501211326 82 0.0 0.0 0.00 0.00 0.00 1007.3
20260501210326 81 0.0 0.0 0.00 0.00 0.00 1007.3
20260501205326 81 0.0 0.0 0.00 0.00 0.00 1007.3
20260501204326 81 0.0 0.0 0.00 0.00 0.00 1007.5
20260501203326 82 0.0 0.0 0.00 0.00 0.00 1007.6
20260501202326 81 0.0 0.0 0.00 0.00 0.00 1007.5
20260501201326 82 0.0 0.0 0.00 0.00 0.00 1007.5
20260501200326 82 0.0 0.0 0.00 0.00 0.00 1007.5
20260501195326 82 0.0 0.0 0.00 0.00 0.00 1007.3
20260501194326 83 0.0 0.0 0.00 0.00 0.00 1007.3
20260501193326 82 0.0 0.0 0.00 0.00 0.00 1007.3
20260501192326 83 0.0 0.0 0.00 0.00 0.00 1007.4
20260501191326 83 0.0 0.0 0.00 0.00 0.00 1007.5
20260501190326 83 0.0 0.0 0.00 0.00 0.00 1007.6
20260501185326 83 0.0 0.0 0.00 0.00 0.00 1007.6
20260501184326 83 0.0 0.0 0.00 0.00 0.00 1007.7
20260501183327 82 0.0 0.0 0.00 0.00 0.00 1007.8
20260501182326 82 0.0 0.0 0.00 0.00 0.00 1007.7
20260501181326 82 0.0 0.0 0.00 0.00 0.00 1007.6
20260501180326 82 0.0 0.0 0.00 0.00 0.00 1007.8
20260501175325 82 0.0 0.0 0.00 0.00 0.00 1008.1
20260501174326 82 0.0 0.0 0.00 0.00 0.00 1008.5
20260501173326 82 0.0 0.0 0.00 0.00 0.00 1008.5
20260501172325 83 0.0 0.0 0.00 0.00 0.00 1008.6
20260501171325 83 0.0 0.0 0.00 0.00 0.00 1008.6
20260501170325 83 0.0 0.0 0.00 0.00 0.00 1008.8
20260501165325 83 0.0 0.0 0.00 0.00 0.00 1009.0
20260501164325 83 0.0 0.0 0.00 0.00 0.00 1009.1
20260501163325 83 0.0 0.0 0.00 0.00 0.00 1009.0
20260501162326 83 0.0 0.0 0.00 0.00 0.00 1009.2
20260501161325 83 0.0 0.0 0.00 0.00 0.00 1009.2
20260501160327 83 0.0 0.0 0.00 0.00 0.00 1009.5
20260501155325 83 0.0 0.0 0.00 0.00 0.00 1009.6
20260501154328 83 0.0 0.0 0.00 0.00 0.00 1009.5
20260501153325 83 0.0 0.0 0.00 0.00 0.00 1009.5
20260501152325 83 0.0 0.0 0.00 0.00 0.00 1009.4
20260501151325 83 0.0 0.0 0.00 0.00 0.00 1009.5
20260501150325 82 0.0 0.0 0.00 0.00 0.00 1009.5
20260501145325 83 0.0 0.0 0.00 0.00 0.00 1009.4
20260501144325 83 0.0 0.0 0.00 0.00 0.00 1009.5
20260501143325 83 0.0 0.0 0.00 0.00 0.00 1009.4